Weather reports worldwide

Advertisment
Konstanz, Germany (10929): temperature & dewpoint: 20.09.2018 17:00:00 - 26.09.2018 17:00:00 (CEST)Konstanz, Germany (10929): temperature 5cm & temperature -5cm: 20.09.2018 17:00:00 - 26.09.2018 17:00:00 (CEST)Konstanz, Germany (10929): temperature -20cm & temperature -100cm: 20.09.2018 17:00:00 - 26.09.2018 17:00:00 (CEST)Konstanz, Germany (10929): wind speed & gusts: 20.09.2018 17:00:00 - 26.09.2018 17:00:00 (CEST)Konstanz, Germany (10929): wind direction: 20.09.2018 17:00:00 - 26.09.2018 17:00:00 (CEST)Konstanz, Germany (10929): reduced air pressure: 20.09.2018 17:00:00 - 26.09.2018 17:00:00 (CEST)Konstanz, Germany (10929): visibility: 20.09.2018 17:00:00 - 26.09.2018 17:00:00 (CEST)Konstanz, Germany (10929): sunshine duration: 20.09.2018 17:00:00 - 26.09.2018 17:00:00 (CEST)Konstanz, Germany (10929): precipitation: 20.09.2018 17:00:00 - 26.09.2018 17:00:00 (CEST)
Date & Time tt [°C] td [°C] tt 5cm [°C] tt -5cm [°C] tt -20cm [°C] tt -100cm [°C] ff [km/h] ff [kn] fx [km/h] fx [kn] dd ppp [hPa] vv [km] sd [min] rr [mm]
26.09.2018 17:00:00 16,3 7,1 19,5 20,8 16,0 18,9 6 4 13 7 E 1032,8 44 60 0,0
26.09.2018 16:00:00 16,0 7,2 19,9 20,6 15,3 18,9 8 4 14 8 E 1033,2 33 60 0,0
26.09.2018 15:00:00 15,1 6,5 19,0 19,5 14,6 18,9 7 4 14 7 E 1034,0 36 60 0,0
26.09.2018 14:00:00 14,6 6,4 18,3 18,1 13,8 19,0 9 5 13 7 ENE 1034,4 41 60 0,0
26.09.2018 13:00:00 13,5 5,8 16,9 16,3 13,2 19,0 6 3 16 9 E 1035,2 42 60 0,0
26.09.2018 12:00:00 12,1 3,8 14,4 14,3 12,7 19,0 6 3 13 7 WNW 1035,9 63 60 0,0
26.09.2018 11:00:00 10,1 3,0 11,2 12,0 12,4 19,0 5 3 10 6 WSW 1036,6 67 60 0,0
26.09.2018 10:00:00 7,8 2,6 8,5 9,5 12,4 19,1 6 3 14 8 W 1036,8 70 60 0,0
26.09.2018 09:00:00 6,2 2,0 5,1 7,7 12,6 19,1 5 3 11 6 NW 1036,3 70 60 0,0
26.09.2018 08:00:00 4,2 1,2 2,3 7,6 12,8 19,1 6 4 10 5 NW 1035,8 70 19 0,0
26.09.2018 07:00:00 3,9 1,2 1,7 7,8 13,0 19,1 6 3 10 5 WNW 1035,6 70 0 0,0
26.09.2018 06:00:00 4,9 1,7 3,5 8,2 13,3 19,1 7 4 13 7 N 1035,3 70 0 0,0
26.09.2018 05:00:00 5,0 1,4 2,7 8,5 13,6 19,2 7 4 10 6 N 1034,9 70 0 0,0
26.09.2018 04:00:00 5,6 1,5 3,9 8,8 13,8 19,2 7 4 13 7 NNE 1035,1 70 0 0,0
26.09.2018 03:00:00 6,4 1,5 3,5 9,2 14,1 19,2 6 3 11 6 N 1035,8 70 0 0,0
26.09.2018 02:00:00 7,3 1,2 5,5 9,6 14,4 19,2 6 3 22 12 NE 1036,1 70 0 0,0
26.09.2018 01:00:00 8,2 1,3 6,8 9,9 14,7 19,3 10 6 25 13 NE 1036,4 70 0 0,0
26.09.2018 00:00:00 8,7 1,2 7,6 10,3 15,0 19,3 13 7 35 19 ENE 1036,3 70 0 0,0
25.09.2018 23:00:00 9,2 1,0 8,0 10,8 15,4 19,3 15 8 34 18 ENE 1036,6 70 0 0,0
25.09.2018 22:00:00 9,9 1,2 8,7 11,4 15,7 19,3 16 9 42 23 NE 1036,1 70 0 0,0
25.09.2018 21:00:00 10,6 1,2 9,4 12,1 16,1 19,4 14 8 34 18 NE 1035,5 70 0 0,0
25.09.2018 20:00:00 11,5 0,6 10,2 13,0 16,4 19,4 16 8 34 18 NE 1035,4 70 18 0,0
25.09.2018 19:00:00 12,6 -0,5 11,4 14,3 16,6 19,4 18 10 39 21 ENE 1035,0 70 60 0,0
25.09.2018 18:00:00 14,2 0,6 13,1 16,4 16,5 19,4 14 8 35 19 NE 1034,5 70 60 0,0
25.09.2018 17:00:00 15,0 -0,1 16,5 17,9 16,3 19,4 17 9 35 19 NE 1034,5 50 60 0,0
25.09.2018 16:00:00 15,9 2,2 18,0 18,2 15,8 19,5 15 8 34 18 ENE 1034,2 51 60 0,0
25.09.2018 15:00:00 15,7 2,2 17,8 17,9 15,4 19,5 17 9 35 19 ENE 1034,6 39 60 0,0
25.09.2018 14:00:00 15,4 2,5 17,8 17,1 14,8 19,5 18 10 31 17 ENE 1035,0 47 60 0,0
25.09.2018 13:00:00 14,4 3,6 16,1 15,9 14,3 19,5 12 6 29 16 ENE 1035,4 46 60 0,0
25.09.2018 12:00:00 13,4 3,9 14,8 14,3 13,9 19,5 18 10 37 20 ENE 1035,8 42 60 0,0
25.09.2018 11:00:00 11,4 3,8 12,3 12,5 13,7 19,6 18 10 36 19 ENE 1036,5 46 60 0,0
25.09.2018 10:00:00 10,3 3,8 10,3 10,6 13,8 19,6 13 7 33 18 NE 1036,5 49 60 0,0
25.09.2018 09:00:00 8,4 3,5 7,4 9,1 14,0 19,6 14 7 28 15 NE 1036,6 64 60 0,0
25.09.2018 08:00:00 7,3 2,9 6,3 9,0 14,2 19,6 12 7 23 12 NE 1036,4 70 26 0,0
25.09.2018 07:00:00 6,9 2,7 5,5 9,2 14,5 19,6 11 6 19 10 NNE 1036,2 70 0 0,0
25.09.2018 06:00:00 6,9 2,8 4,3 9,6 14,8 19,6 6 3 18 10 N 1036,5 70 0 0,0
25.09.2018 05:00:00 7,2 2,7 5,2 9,8 15,1 19,6 8 4 23 12 NE 1036,5 70 0 0,0
25.09.2018 04:00:00 6,8 3,3 5,3 10,2 15,4 19,7 8 4 15 8 NNE 1036,6 70 0 0,0
25.09.2018 03:00:00 7,0 3,4 5,1 10,6 15,7 19,7 7 4 13 7 N 1036,6 70 0 0,0
25.09.2018 02:00:00 8,1 3,1 6,7 10,9 16,1 19,7 8 5 15 8 NNE 1036,2 70 0 0,0
25.09.2018 01:00:00 8,1 3,3 5,7 11,4 16,4 19,7 6 3 16 8 N 1036,0 70 0 0,0
25.09.2018 00:00:00 8,5 3,1 7,1 11,8 16,8 19,7 9 5 17 9 N 1035,9 70 0 0,0
24.09.2018 23:00:00 9,1 2,9 6,9 12,5 17,2 19,7 7 4 16 9 N 1035,6 70 0 0,0
24.09.2018 22:00:00 10,3 2,6 8,9 13,2 17,6 19,7 9 5 21 11 NNE 1034,8 70 0 0,0
24.09.2018 21:00:00 10,7 2,6 9,3 14,1 18,0 19,7 8 5 19 10 NNE 1034,7 70 0 0,0
24.09.2018 20:00:00 10,7 3,4 8,6 15,3 18,3 19,8 4 2 7 4 NE 1033,8 70 5 0,0
24.09.2018 19:00:00 12,6 1,9 11,0 16,6 18,5 19,8 4 2 11 6 SSE 1033,1 70 3 0,0
24.09.2018 18:00:00 13,1 1,8 12,3 18,2 18,4 19,8 5 3 17 9 NE 1032,7 70 24 0,0
24.09.2018 17:00:00 13,2 1,5 13,8 19,8 18,1 19,8 7 4 14 7 E 1032,4 70 48 0,0
24.09.2018 16:00:00 14,7 2,3 17,9 20,0 17,8 19,8 8 4 17 9 E 1032,2 70 58 0,0
24.09.2018 15:00:00 13,8 3,2 15,9 18,7 17,4 19,8 6 3 19 10 SE 1032,7 70 27 0,0
24.09.2018 14:00:00 13,5 1,7 14,8 18,5 17,0 19,8 6 4 17 9 NNW 1032,9 70 57 0,0
24.09.2018 13:00:00 13,3 4,0 14,9 16,3 16,7 19,8 7 4 15 8 N 1033,3 70 21 0,0
24.09.2018 12:00:00 12,6 3,5 13,7 15,4 16,6 19,8 9 5 19 10 NE 1033,6 70 25 0,0
24.09.2018 11:00:00 11,0 4,7 12,1 13,9 16,7 19,8 6 3 14 8 E 1033,6 70 9 0,0
24.09.2018 10:00:00 10,1 4,7 10,7 13,2 16,8 19,8 9 5 17 9 NNE 1033,1 70 0 0,0
24.09.2018 09:00:00 9,3 4,5 9,5 12,8 17,1 19,9 5 3 21 11 NE 1032,4 70 0 0,0
24.09.2018 08:00:00 8,6 4,3 8,7 12,8 17,4 19,9 11 6 28 15 N 1031,2 70 0 0,0
24.09.2018 07:00:00 8,8 5,0 8,7 13,2 17,7 19,9 8 4 21 11 NNE 1029,4 70 0 0,0
24.09.2018 06:00:00 9,2 6,2 9,2 13,5 18,0 19,9 10 5 19 10 NNW 1028,0 70 0 0,0
24.09.2018 05:00:00 9,6 6,9 8,6 14,0 18,4 19,9 6 3 27 15 W 1026,9 70 0 0,0
24.09.2018 04:00:00 10,5 8,3 10,1 14,4 18,8 19,9 11 6 25 14 N 1025,4 70 0 0,0
24.09.2018 03:00:00 11,0 8,1 10,4 15,2 19,1 19,9 11 6 22 12 NNW 1025,0 70 0 0,0
24.09.2018 02:00:00 11,8 8,9 11,8 16,1 19,5 19,9 12 7 22 12 NW 1024,2 70 0 0,0
24.09.2018 01:00:00 12,6 10,2 12,5 16,6 19,8 19,9 9 5 22 12 NW 1023,5 70 0 0,1
24.09.2018 00:00:00 13,3 10,6 12,7 17,0 20,2 19,9 10 5 34 18 WNW 1021,3 25 0 0,9
23.09.2018 23:00:00 13,4 11,5 12,7 17,7 20,7 20,0 18 10 39 21 W 1018,4 7 0 2,2
23.09.2018 22:00:00 14,3 12,3 13,7 19,0 20,9 20,0 23 13 149 80 WNW 1015,1 6 0 6,1
23.09.2018 21:00:00 24,2 13,7 23,5 21,6 21,1 20,0 32 18 71 38 WSW 1008,9 31 0 0,0
23.09.2018 20:00:00 23,5 14,2 22,7 21,9 21,1 20,0 28 15 50 27 WSW 1008,4 70 0 0,0
23.09.2018 19:00:00 23,5 14,9 22,7 23,0 21,0 20,0 22 12 53 29 W 1009,1 70 58 0,0
23.09.2018 18:00:00 24,9 15,3 24,4 24,8 20,7 20,0 28 15 49 27 W 1009,3 57 51 0,0
23.09.2018 17:00:00 25,8 14,6 26,2 25,3 20,2 20,0 23 13 62 33 W 1009,9 70 39 0,0
23.09.2018 16:00:00 27,0 13,9 29,4 24,9 19,5 20,0 31 17 64 35 WSW 1010,4 70 45 0,0
23.09.2018 15:00:00 26,4 14,1 28,7 23,8 19,0 20,1 30 16 66 36 WSW 1011,4 30 58 0,0
23.09.2018 14:00:00 24,7 14,4 25,1 20,7 18,6 20,1 31 17 52 28 WSW 1013,1 30 21 0,0
23.09.2018 13:00:00 23,9 14,5 25,4 20,0 18,3 20,1 19 10 50 27 WSW 1014,5 48 34 0,0
23.09.2018 12:00:00 20,7 13,5 20,6 17,7 18,2 20,1 19 10 36 19 WSW 1016,0 70 0 0,0
23.09.2018 11:00:00 19,5 12,2 19,3 17,2 18,1 20,1 14 8 28 15 W 1016,9 70 0 0,0
23.09.2018 10:00:00 18,1 10,6 16,2 16,7 18,1 20,1 14 7 29 16 W 1017,5 70 0 0,0
23.09.2018 09:00:00 17,0 10,5 15,3 16,4 18,2 20,1 8 5 15 8 W 1017,6 70 0 0,0
23.09.2018 08:00:00 14,8 11,5 13,9 15,9 18,3 20,1 6 3 10 5 WNW 1018,1 70 0 0,0
23.09.2018 07:00:00 14,1 12,1 13,5 16,1 18,4 20,1 0 0 8 4 N 1018,4 70 0 0,0
23.09.2018 06:00:00 14,2 12,2 13,6 16,1 18,5 20,1 4 2 13 7 SSW 1018,6 70 0 0,0
23.09.2018 05:00:00 13,7 12,0 13,5 16,1 18,6 20,2 8 4 15 8 S 1019,2 60 0 0,0
23.09.2018 04:00:00 12,9 11,4 12,7 16,1 18,8 20,2 3 2 10 6 E 1020,3 53 0 0,0
23.09.2018 03:00:00 12,6 11,1 12,4 16,2 19,0 20,2 8 4 12 7 S 1021,6 70 0 0,7
23.09.2018 02:00:00 12,8 10,2 11,9 16,5 19,2 20,2 6 3 17 9 WNW 1022,3 15 0 0,4
23.09.2018 01:00:00 13,7 9,8 12,6 17,0 19,4 20,2 10 5 29 15 W 1022,4 48 0 0,1
23.09.2018 00:00:00 15,0 11,1 14,2 17,5 19,6 20,2 3 2 8 4 WNW 1021,3 69 0 0,1
22.09.2018 23:00:00 15,2 11,0 15,0 17,7 19,7 20,2 5 3 6 3 WSW 1020,9 69 0 0,0
22.09.2018 22:00:00 15,5 10,7 15,0 18,0 19,9 20,2 3 1 9 5 SSW 1021,1 48 0 0,0
22.09.2018 21:00:00 15,5 10,6 15,2 18,4 20,1 20,2 6 3 11 6 S 1020,7 70 0 0,1
22.09.2018 20:00:00 15,9 9,6 15,4 19,1 20,3 20,2 5 3 11 6 SSE 1020,7 68 0 0,0
22.09.2018 19:00:00 16,6 8,1 16,6 20,1 20,3 20,3 5 3 11 6 SSE 1020,3 70 0 0,0
22.09.2018 18:00:00 17,9 7,0 18,4 21,3 20,2 20,3 7 4 16 9 WSW 1020,7 70 20 0,0
22.09.2018 17:00:00 17,4 5,2 18,7 21,9 19,9 20,3 8 4 21 11 W 1021,2 70 34 0,0
22.09.2018 16:00:00 18,4 5,7 21,3 22,7 19,4 20,3 8 4 21 11 W 1021,4 70 60 0,0
22.09.2018 15:00:00 17,9 5,0 21,4 21,7 19,0 20,3 9 5 21 11 W 1021,6 70 52 0,0
22.09.2018 14:00:00 16,6 5,4 20,8 20,1 18,6 20,3 8 4 14 8 WSW 1023,0 70 45 0,0
22.09.2018 13:00:00 15,7 7,3 17,3 18,6 18,3 20,3 7 4 14 7 WSW 1023,9 70 18 0,0
22.09.2018 12:00:00 15,0 7,3 17,3 17,8 18,2 20,3 5 3 12 6 W 1024,3 70 28 0,0
22.09.2018 11:00:00 13,8 8,2 14,3 16,4 18,1 20,3 8 4 14 8 NW 1024,9 70 15 0,0
22.09.2018 10:00:00 13,2 8,4 13,5 15,4 18,2 20,3 6 3 13 7 NNW 1025,1 70 32 0,0
22.09.2018 09:00:00 12,4 8,6 12,1 14,5 18,4 20,3 7 4 12 7 W 1024,9 70 20 0,0
22.09.2018 08:00:00 11,4 8,1 10,6 14,2 18,6 20,3 7 4 12 6 W 1024,8 70 0 0,0
22.09.2018 07:00:00 11,2 8,2 9,9 14,5 18,9 20,3 7 4 14 8 W 1025,1 70 0 0,0
22.09.2018 06:00:00 11,6 8,4 10,9 14,9 19,2 20,3 8 4 20 11 W 1024,7 70 0 0,0
22.09.2018 05:00:00 11,7 8,3 10,9 15,3 19,5 20,3 8 4 13 7 SW 1024,7 70 0 0,0
22.09.2018 04:00:00 12,2 8,2 11,9 15,7 19,8 20,3 6 4 22 12 W 1024,6 70 0 0,0
22.09.2018 03:00:00 12,4 8,4 12,2 16,0 20,1 20,3 9 5 19 10 WSW 1024,1 70 0 0,0
22.09.2018 02:00:00 12,5 8,7 12,4 16,4 20,4 20,3 7 4 20 11 WSW 1023,8 70 0 0,0
22.09.2018 01:00:00 12,5 9,0 12,4 16,7 20,8 20,3 12 6 26 14 SW 1023,3 70 0 0,0
22.09.2018 00:00:00 12,6 9,0 12,6 17,2 21,2 20,3 11 6 22 12 WSW 1022,6 70 0 0,0
21.09.2018 23:00:00 13,4 7,9 11,8 17,8 21,6 20,3 9 5 24 13 WNW 1021,1 70 0 0,0
21.09.2018 22:00:00 14,2 10,4 13,1 18,9 22,0 20,3 11 6 29 16 NW 1019,9 70 0 0,1
21.09.2018 21:00:00 15,2 12,8 14,3 20,1 22,3 20,3 14 7 29 16 NW 1018,2 37 0 2,1
21.09.2018 20:00:00 17,7 14,3 16,1 21,6 22,5 20,3 18 10 34 19 WSW 1015,4 8 0 1,0
21.09.2018 19:00:00 21,5 13,7 21,1 22,6 22,6 20,3 13 7 30 16 SW 1013,0 58 0 0,0
21.09.2018 18:00:00 21,8 13,9 20,4 23,3 22,7 20,3 10 6 26 14 W 1012,0 46 0 0,0
21.09.2018 17:00:00 22,5 14,0 22,8 24,3 22,6 20,3 13 7 48 26 WNW 1011,4 66 0 0,0
21.09.2018 16:00:00 26,1 11,9 26,1 25,4 22,3 20,3 14 8 25 14 W 1010,5 70 2 0,0
21.09.2018 15:00:00 26,1 12,5 27,0 25,3 21,9 20,3 15 8 35 19 SW 1010,6 63 4 0,0
21.09.2018 14:00:00 25,4 12,3 26,2 25,3 21,5 20,3 21 11 43 23 WSW 1011,5 61 12 0,0
21.09.2018 13:00:00 25,6 12,9 28,1 24,9 20,9 20,3 19 10 35 19 WSW 1012,0 47 41 0,0
21.09.2018 12:00:00 23,6 15,1 26,9 23,3 20,5 20,3 6 3 14 7 SSW 1013,2 30 47 0,0
21.09.2018 11:00:00 21,4 15,2 23,5 21,8 20,2 20,2 5 3 10 5 S 1013,6 30 57 0,0
21.09.2018 10:00:00 19,4 14,7 20,1 19,3 20,2 20,2 4 2 6 3 NE 1014,1 28 60 0,0
21.09.2018 09:00:00 16,1 14,6 14,9 17,7 20,4 20,2 0 0 5 3 N 1014,8 17 60 0,0
21.09.2018 08:00:00 14,6 13,6 13,4 17,5 20,7 20,2 0 0 7 4 N 1015,3 13 19 0,0
21.09.2018 07:00:00 14,6 13,8 13,4 17,8 21,0 20,2 5 3 7 4 N 1014,9 11 0 0,0
21.09.2018 06:00:00 14,7 13,7 12,7 18,1 21,2 20,2 5 3 6 3 WNW 1015,2 17 0 0,0
21.09.2018 05:00:00 15,0 13,8 13,7 18,5 21,5 20,2 4 2 7 4 N 1015,1 18 0 0,0
21.09.2018 04:00:00 15,6 14,2 13,5 18,9 21,9 20,2 5 3 6 4 NW 1015,5 24 0 0,0
21.09.2018 03:00:00 15,9 13,5 14,2 19,3 22,2 20,2 4 2 6 3 NNW 1015,5 37 0 0,0
21.09.2018 02:00:00 15,8 13,4 14,0 19,9 22,6 20,2 3 2 11 6 NW 1015,8 35 0 0,0
21.09.2018 01:00:00 16,8 14,3 15,4 20,5 22,9 20,2 7 4 10 6 NNE 1015,9 37 0 0,0
21.09.2018 00:00:00 17,5 14,4 15,2 21,1 23,3 20,2 4 2 8 4 NE 1016,2 43 0 0,0
20.09.2018 23:00:00 18,4 13,7 15,7 21,8 23,7 20,2 4 2 9 5 ENE 1016,4 60 0 0,0
20.09.2018 22:00:00 20,1 13,6 17,0 22,7 24,1 20,2 6 4 9 5 N 1016,2 70 0 0,0
20.09.2018 21:00:00 20,5 13,3 18,2 23,8 24,4 20,2 3 1 5 3 NNW 1016,3 67 0 0,0
20.09.2018 20:00:00 22,1 13,1 18,9 25,3 24,7 20,2 5 3 9 5 S 1016,1 69 18 0,0
20.09.2018 19:00:00 24,7 12,8 23,0 27,2 24,7 20,2 4 2 11 6 E 1015,5 70 60 0,0
20.09.2018 18:00:00 27,1 11,0 26,4 30,0 24,4 20,2 6 3 10 5 SE 1015,5 58 60 0,0
20.09.2018 17:00:00 28,1 12,7 31,8 30,9 23,8 20,2 4 2 10 6 SSE 1015,8 48 60 0,0

tt = temperature
td = dewpoint
tt 5cm = temperature 5cm
tt -5cm = temperature -5cm
tt -20cm = temperature -20cm
tt -100cm = temperature -100cm
ff = wind speed
fx = gusts
dd = wind direction
ppp = reduced air pressure
vv = visibility
sd = sunshine duration
rr = precipitation

Next stations